GW4081 Weather Reports


Display with metric or nautical units.
time (UTC)temp
F
wind
direction
speed
MPH
gust
MPH
rain 1hr
in
rain 24hr
in
rain mn
in
humidity
%
barometer
mb
20260905044104 89 175 9.0 16.0 0.00 0.00 0.00 56 1013.8
20260905043604 89 165 9.0 16.0 0.00 0.00 0.00 55 1013.8
20260905043104 89 160 10.0 16.0 0.00 0.00 0.00 55 1013.9
20260905042104 90 164 10.0 16.0 0.00 0.00 0.00 55 1013.8
20260905040604 90 173 10.0 16.0 0.00 0.00 0.00 54 1013.8
20260905040104 90 162 9.0 17.0 0.00 0.00 0.00 54 1013.8
20260905035605 91 163 12.0 17.0 0.00 0.00 0.00 53 1013.7
20260905035104 91 158 10.0 20.0 0.00 0.00 0.00 53 1013.7
20260905034604 91 162 12.0 20.0 0.00 0.00 0.00 53 1013.7
20260905033104 91 156 10.0 17.0 0.00 0.00 0.00 52 1013.6
20260905032604 91 162 10.0 16.0 0.00 0.00 0.00 52 1013.5
20260905032105 92 141 9.0 16.0 0.00 0.00 0.00 52 1013.5
20260905031604 92 161 9.0 13.0 0.00 0.00 0.00 51 1013.4
20260905030604 92 166 8.0 18.0 0.00 0.00 0.00 51 1013.2
20260905030104 92 148 9.0 18.0 0.00 0.00 0.00 51 1013.1
20260905025604 92 143 11.0 18.0 0.00 0.00 0.00 50 1013.0
20260905025105 92 149 10.0 13.0 0.00 0.00 0.00 50 1012.9
20260905024604 92 152 9.0 15.0 0.00 0.00 0.00 50 1012.8
20260905024104 93 158 10.0 15.0 0.00 0.00 0.00 50 1012.8
20260905023605 93 155 7.0 15.0 0.00 0.00 0.00 50 1012.7
20260905022104 93 158 8.0 20.0 0.00 0.00 0.00 49 1012.4
20260905021104 93 152 10.0 14.0 0.00 0.00 0.00 49 1012.2
20260905020604 93 151 9.0 16.0 0.00 0.00 0.00 49 1012.2
20260905020105 94 157 7.0 16.0 0.00 0.00 0.00 49 1012.1
20260905015604 94 152 9.0 14.0 0.00 0.00 0.00 49 1012.1
20260905015104 94 146 9.0 14.0 0.00 0.00 0.00 48 1012.0
20260905014105 94 153 8.0 12.0 0.00 0.00 0.00 49 1011.8
20260905013604 94 156 6.0 12.0 0.00 0.00 0.00 49 1011.8
20260905012605 94 152 7.0 15.0 0.00 0.00 0.00 48 1011.7
20260905012104 95 150 9.0 15.0 0.00 0.00 0.00 48 1011.6
20260905011604 95 156 10.0 15.0 0.00 0.00 0.00 48 1011.6
20260905010604 95 154 8.0 12.0 0.00 0.00 0.00 48 1011.4
20260905010104 95 156 7.0 13.0 0.00 0.00 0.00 47 1011.3
20260905005604 95 150 8.0 16.0 0.00 0.00 0.00 47 1011.3
20260905005104 96 142 8.0 17.0 0.00 0.00 0.00 47 1011.3
20260905004606 96 148 11.0 17.0 0.00 0.00 0.00 46 1011.3
20260905004104 96 153 8.0 14.0 0.00 0.00 0.00 46 1011.2
20260905003605 96 152 9.0 14.0 0.00 0.00 0.00 46 1011.2
20260905003104 97 141 10.0 15.0 0.00 0.00 0.00 46 1011.2
20260905002604 97 143 10.0 16.0 0.00 0.00 0.00 45 1011.2
20260905001604 97 154 12.0 16.0 0.00 0.00 0.00 45 1011.1
20260905001104 97 136 11.0 16.0 0.00 0.00 0.00 45 1011.2
20260905000604 98 157 9.0 13.0 0.00 0.00 0.00 44 1011.1
20260905000104 98 149 10.0 15.0 0.00 0.00 0.00 44 1011.1
20260904235605 98 154 9.0 18.0 0.00 0.00 0.00 44 1011.1
20260904235104 98 130 10.0 18.0 0.00 0.00 0.00 44 1011.1
20260904233604 99 150 11.0 18.0 0.00 0.00 0.00 43 1011.1
20260904233104 99 148 12.0 18.0 0.00 0.00 0.00 43 1011.1
20260904232104 100 136 9.0 16.0 0.00 0.00 0.00 43 1011.1
20260904231104 100 162 7.0 16.0 0.00 0.00 0.00 43 1011.0
20260904230104 100 142 10.0 17.0 0.00 0.00 0.00 42 1011.1
20260904225604 100 140 11.0 17.0 0.00 0.00 0.00 42 1011.1
20260904225104 100 139 7.0 16.0 0.00 0.00 0.00 43 1011.0
20260904224604 100 134 10.0 21.0 0.00 0.00 0.00 43 1011.0
20260904224105 100 155 11.0 21.0 0.00 0.00 0.00 43 1010.9
20260904223604 100 149 12.0 18.0 0.00 0.00 0.00 43 1011.0
20260904223105 100 151 10.0 17.0 0.00 0.00 0.00 43 1011.0
20260904221604 100 132 13.0 18.0 0.00 0.00 0.00 42 1011.1
20260904221105 101 128 10.0 16.0 0.00 0.00 0.00 42 1011.1
20260904220604 101 130 10.0 16.0 0.00 0.00 0.00 42 1011.1
20260904220104 101 131 10.0 20.0 0.00 0.00 0.00 42 1011.1
20260904215604 101 130 11.0 20.0 0.00 0.00 0.00 42 1011.2
20260904215104 101 152 11.0 16.0 0.00 0.00 0.00 42 1011.1
20260904214604 101 174 10.0 18.0 0.00 0.00 0.00 42 1011.2
20260904214104 101 157 10.0 18.0 0.00 0.00 0.00 42 1011.3
20260904213604 100 140 12.0 20.0 0.00 0.00 0.00 43 1011.3
20260904213104 100 133 9.0 22.0 0.00 0.00 0.00 43 1011.3
20260904212604 101 175 12.0 22.0 0.00 0.00 0.00 42 1011.4
20260904212104 101 127 10.0 20.0 0.00 0.00 0.00 43 1011.5
20260904211604 101 177 14.0 22.0 0.00 0.00 0.00 42 1011.5
20260904210604 101 144 13.0 20.0 0.00 0.00 0.00 42 1011.5
20260904210104 101 143 10.0 18.0 0.00 0.00 0.00 42 1011.5
20260904205104 101 137 10.0 16.0 0.00 0.00 0.00 41 1011.7
20260904204605 102 164 9.0 20.0 0.00 0.00 0.00 40 1011.7
20260904204104 102 175 12.0 20.0 0.00 0.00 0.00 39 1011.8
20260904203604 101 137 12.0 18.0 0.00 0.00 0.00 40 1011.8
20260904203104 101 156 4.0 20.0 0.00 0.00 0.00 42 1011.8
20260904202604 101 156 13.0 22.0 0.00 0.00 0.00 40 1011.9
20260904202104 101 156 13.0 22.0 0.00 0.00 0.00 41 1012.0
20260904201104 101 151 12.0 21.0 0.00 0.00 0.00 41 1012.1
20260904200605 101 168 14.0 21.0 0.00 0.00 0.00 41 1012.1
20260904200104 100 122 10.0 20.0 0.00 0.00 0.00 42 1012.2
20260904195604 101 171 10.0 18.0 0.00 0.00 0.00 42 1012.2
20260904194604 100 189 13.0 22.0 0.00 0.00 0.00 42 1012.3
20260904193604 100 152 14.0 22.0 0.00 0.00 0.00 42 1012.4
20260904193104 100 168 12.0 21.0 0.00 0.00 0.00 43 1012.5
20260904192104 100 163 10.0 16.0 0.00 0.00 0.00 43 1012.6
20260904191604 100 163 9.0 16.0 0.00 0.00 0.00 44 1012.6
20260904190604 99 149 11.0 16.0 0.00 0.00 0.00 45 1012.6
20260904190104 99 167 9.0 16.0 0.00 0.00 0.00 46 1012.8
20260904185604 98 162 10.0 16.0 0.00 0.00 0.00 46 1012.8
20260904184604 98 167 11.0 20.0 0.00 0.00 0.00 47 1013.0
20260904184104 98 180 7.0 20.0 0.00 0.00 0.00 48 1013.0
20260904183604 98 160 9.0 20.0 0.00 0.00 0.00 48 1013.0
20260904183104 98 161 10.0 18.0 0.00 0.00 0.00 48 1013.1
20260904182104 97 151 8.0 17.0 0.00 0.00 0.00 50 1013.3
20260904181604 97 193 8.0 16.0 0.00 0.00 0.00 50 1013.3
20260904181104 96 176 5.0 17.0 0.00 0.00 0.00 51 1013.3
20260904180604 96 151 12.0 20.0 0.00 0.00 0.00 50 1013.5
20260904175604 96 189 10.0 18.0 0.00 0.00 0.00 52 1013.5
20260904174604 95 182 9.0 22.0 0.00 0.00 0.00 52 1013.6
20260904174104 96 156 12.0 22.0 0.00 0.00 0.00 53 1013.8
20260904173604 95 145 9.0 16.0 0.00 0.00 0.00 54 1013.8
20260904172604 94 157 7.0 14.0 0.00 0.00 0.00 55 1014.0
20260904172104 94 152 8.0 16.0 0.00 0.00 0.00 55 1014.0
20260904171604 94 223 9.0 16.0 0.00 0.00 0.00 55 1014.0
20260904171104 93 195 9.0 16.0 0.00 0.00 0.00 57 1014.0
20260904170604 93 177 10.0 18.0 0.00 0.00 0.00 57 1014.1
20260904170104 92 190 10.0 18.0 0.00 0.00 0.00 57 1014.2
20260904165604 92 172 9.0 18.0 0.00 0.00 0.00 57 1014.3
20260904165104 92 163 9.0 16.0 0.00 0.00 0.00 58 1014.3
20260904164604 92 160 9.0 15.0 0.00 0.00 0.00 57 1014.3
20260904164104 92 188 10.0 16.0 0.00 0.00 0.00 57 1014.3
20260904163604 92 185 11.0 18.0 0.00 0.00 0.00 58 1014.4
20260904163104 92 159 7.0 20.0 0.00 0.00 0.00 59 1014.4
20260904162604 91 180 7.0 20.0 0.00 0.00 0.00 61 1014.4
20260904161604 90 192 12.0 20.0 0.00 0.00 0.00 61 1014.4
20260904161104 89 172 10.0 15.0 0.00 0.00 0.00 62 1014.4
20260904160104 89 170 10.0 17.0 0.00 0.00 0.00 63 1014.4
20260904155104 88 185 10.0 18.0 0.00 0.00 0.00 64 1014.3
20260904154604 88 171 11.0 18.0 0.00 0.00 0.00 64 1014.3
20260904154104 88 190 10.0 16.0 0.00 0.00 0.00 66 1014.3
20260904153104 87 172 9.0 18.0 0.00 0.00 0.00 66 1014.2
20260904152604 86 184 10.0 18.0 0.00 0.00 0.00 67 1014.3
20260904152103 86 164 12.0 17.0 0.00 0.00 0.00 68 1014.3
20260904151104 85 164 12.0 20.0 0.00 0.00 0.00 69 1014.2
20260904150604 85 179 11.0 21.0 0.00 0.00 0.00 69 1014.3
20260904150104 84 175 12.0 21.0 0.00 0.00 0.00 71 1014.2
20260904145604 84 181 11.0 20.0 0.00 0.00 0.00 71 1014.1
20260904145103 84 160 13.0 22.0 0.00 0.00 0.00 72 1014.0
20260904144604 83 168 14.0 22.0 0.00 0.00 0.00 72 1014.0
20260904144104 83 173 11.0 21.0 0.00 0.00 0.00 73 1014.0
20260904143604 83 168 13.0 21.0 0.00 0.00 0.00 73 1014.0
20260904143103 82 177 12.0 22.0 0.00 0.00 0.00 74 1014.0
20260904142604 82 172 12.0 22.0 0.00 0.00 0.00 74 1014.1
20260904142104 81 169 12.0 20.0 0.00 0.00 0.00 75 1014.1
20260904141104 81 171 14.0 23.0 0.00 0.00 0.00 76 1014.0
20260904140604 80 159 12.0 21.0 0.00 0.00 0.00 76 1014.1
20260904140104 80 192 13.0 21.0 0.00 0.00 0.00 77 1014.1
20260904135604 80 178 12.0 21.0 0.00 0.00 0.00 77 1014.1
20260904135104 80 160 13.0 21.0 0.00 0.00 0.00 77 1014.1
20260904134604 80 181 11.0 16.0 0.00 0.00 0.00 77 1014.2
20260904134104 80 175 11.0 18.0 0.00 0.00 0.00 77 1014.2
20260904133104 79 160 11.0 20.0 0.00 0.00 0.00 78 1014.2
20260904132103 79 166 10.0 20.0 0.00 0.00 0.00 79 1014.2
20260904131104 78 159 10.0 18.0 0.00 0.00 0.00 79 1014.1
20260904125103 78 159 9.0 13.0 0.00 0.00 0.00 80 1013.9
20260904124604 77 174 10.0 13.0 0.00 0.00 0.00 80 1013.9
20260904124104 77 166 8.0 13.0 0.00 0.00 0.00 80 1013.8
20260904123604 77 160 9.0 13.0 0.00 0.00 0.00 80 1013.8
20260904122104 77 168 7.0 12.0 0.00 0.00 0.00 80 1013.6
20260904121104 77 155 8.0 12.0 0.00 0.00 0.00 80 1013.5
20260904120603 77 168 7.0 14.0 0.00 0.00 0.00 80 1013.6
20260904120104 77 181 6.0 14.0 0.00 0.00 0.00 80 1013.6
20260904115603 77 175 7.0 12.0 0.00 0.00 0.00 80 1013.6
20260904115104 77 174 7.0 12.0 0.00 0.00 0.00 79 1013.6
20260904114104 77 160 8.0 16.0 0.00 0.00 0.00 79 1013.3
20260904113604 77 158 9.0 16.0 0.00 0.00 0.00 79 1013.4
20260904113104 77 163 8.0 14.0 0.00 0.00 0.00 79 1013.3
20260904112604 77 161 9.0 14.0 0.00 0.00 0.00 79 1013.4
20260904112104 77 151 10.0 14.0 0.00 0.00 0.00 79 1013.4
20260904111604 77 151 7.0 12.0 0.00 0.00 0.00 79 1013.4
20260904111103 78 157 8.0 12.0 0.00 0.00 0.00 79 1013.5
20260904110604 78 162 9.0 12.0 0.00 0.00 0.00 79 1013.4
20260904110104 78 156 9.0 15.0 0.00 0.00 0.00 79 1013.4
20260904105604 78 151 10.0 15.0 0.00 0.00 0.00 79 1013.4
20260904105104 78 161 9.0 16.0 0.00 0.00 0.00 79 1013.4
20260904104603 78 162 9.0 16.0 0.00 0.00 0.00 78 1013.4
20260904104103 78 154 9.0 13.0 0.00 0.00 0.00 78 1013.3
20260904103603 78 151 8.0 15.0 0.00 0.00 0.00 78 1013.2
20260904103104 78 164 10.0 15.0 0.00 0.00 0.00 78 1013.2
20260904102603 78 165 10.0 15.0 0.00 0.00 0.00 78 1013.2
20260904102103 78 162 9.0 15.0 0.00 0.00 0.00 77 1013.3
20260904101604 78 156 10.0 15.0 0.00 0.00 0.00 77 1013.3
20260904101104 78 154 9.0 14.0 0.00 0.00 0.00 78 1013.3
20260904100104 78 165 7.0 14.0 0.00 0.00 0.00 78 1013.3
20260904095603 78 170 8.0 14.0 0.00 0.00 0.00 78 1013.3
20260904095104 78 173 7.0 13.0 0.00 0.00 0.00 78 1013.3
20260904094604 78 173 8.0 12.0 0.00 0.00 0.00 78 1013.3
20260904094104 79 179 8.0 16.0 0.00 0.00 0.00 77 1013.4
20260904093104 79 171 8.0 16.0 0.00 0.00 0.00 78 1013.3
20260904092104 79 162 9.0 16.0 0.00 0.00 0.00 78 1013.2
20260904090604 79 165 8.0 14.0 0.00 0.00 0.00 78 1013.1
20260904090104 79 170 9.0 15.0 0.00 0.00 0.00 79 1013.0
20260904085104 79 179 6.0 14.0 0.00 0.00 0.00 79 1013.2
20260904084604 79 176 10.0 14.0 0.00 0.00 0.00 79 1013.2
20260904084104 79 167 8.0 15.0 0.00 0.00 0.00 79 1013.1
20260904083604 79 178 9.0 15.0 0.00 0.00 0.00 79 1013.1
20260904083104 79 169 9.0 15.0 0.00 0.00 0.00 80 1013.1
20260904082604 79 173 8.0 15.0 0.00 0.00 0.00 80 1013.0
20260904082103 79 181 7.0 15.0 0.00 0.00 0.00 80 1013.1
20260904081104 79 178 9.0 14.0 0.00 0.00 0.00 79 1012.9
20260904080604 79 177 8.0 14.0 0.00 0.00 0.00 79 1012.9
20260904080104 79 174 8.0 14.0 0.00 0.00 0.00 80 1012.9
20260904075605 79 174 8.0 16.0 0.00 0.00 0.00 80 1012.8
20260904075104 79 156 11.0 16.0 0.00 0.00 0.00 79 1012.7
20260904074604 79 157 9.0 14.0 0.00 0.00 0.00 79 1012.8
20260904074104 79 169 10.0 14.0 0.00 0.00 0.00 79 1012.8
20260904073604 80 164 8.0 14.0 0.00 0.00 0.00 79 1012.8
20260904073104 80 155 11.0 14.0 0.00 0.00 0.00 79 1012.9
20260904072603 80 155 9.0 16.0 0.00 0.00 0.00 79 1012.9
20260904070604 80 168 8.0 15.0 0.00 0.00 0.00 78 1013.1
20260904065103 80 158 10.0 15.0 0.00 0.00 0.00 78 1013.1
20260904064603 80 161 12.0 15.0 0.00 0.00 0.00 78 1013.2
20260904064104 80 157 8.0 13.0 0.00 0.00 0.00 78 1013.2
20260904063604 80 156 9.0 14.0 0.00 0.00 0.00 77 1013.2
20260904062603 81 155 9.0 15.0 0.00 0.00 0.00 77 1013.2
20260904061604 81 166 12.0 17.0 0.00 0.00 0.00 76 1013.2
20260904061103 81 153 10.0 16.0 0.00 0.00 0.00 76 1013.1
20260904060604 81 148 10.0 16.0 0.00 0.00 0.00 76 1013.1
20260904054604 82 162 10.0 16.0 0.00 0.00 0.00 75 1013.1
20260904053604 82 163 10.0 17.0 0.00 0.00 0.00 75 1013.0
20260904053104 82 171 11.0 17.0 0.00 0.00 0.00 75 1012.9
20260904052604 82 155 12.0 18.0 0.00 0.00 0.00 74 1012.9
20260904052103 82 167 11.0 18.0 0.00 0.00 0.00 74 1013.0
20260904050604 82 159 12.0 21.0 0.00 0.00 0.00 73 1012.9
20260904050104 83 148 10.0 15.0 0.00 0.00 0.00 73 1012.9
20260904045603 83 153 11.0 15.0 0.00 0.00 0.00 73 1012.9
20260904045103 83 164 11.0 18.0 0.00 0.00 0.00 73 1012.9